Waarnemingen

Advertentie
Mijn weer
Freiburg, Duitsland (10803): temperatuur & dauwpunt: 17.07.2017 08:00:00 - 23.07.2017 08:00:00 (CEST)Freiburg, Duitsland (10803): temperatuur 5cm & temperatuur -5cm: 17.07.2017 08:00:00 - 23.07.2017 08:00:00 (CEST)Freiburg, Duitsland (10803): temperatuur -20cm & temperatuur -100cm: 17.07.2017 08:00:00 - 23.07.2017 08:00:00 (CEST)Freiburg, Duitsland (10803): windsnelheid & windstoten: 17.07.2017 08:00:00 - 23.07.2017 08:00:00 (CEST)Freiburg, Duitsland (10803): windrichting: 17.07.2017 08:00:00 - 23.07.2017 08:00:00 (CEST)Freiburg, Duitsland (10803): luchtdruk: 17.07.2017 08:00:00 - 23.07.2017 08:00:00 (CEST)Freiburg, Duitsland (10803): zicht: 17.07.2017 08:00:00 - 23.07.2017 08:00:00 (CEST)Freiburg, Duitsland (10803): Zonneschijnduur: 17.07.2017 08:00:00 - 23.07.2017 08:00:00 (CEST)Freiburg, Duitsland (10803): neerslag: 17.07.2017 08:00:00 - 23.07.2017 08:00:00 (CEST)
Datum & Tijd tt [°C] td [°C] tt 5cm [°C] tt -5cm [°C] tt -20cm [°C] tt -100cm [°C] ff [km/u] ff [kn] fx [km/u] fx [kn] dd ppp [hPa] vv [km] sd [min] rr [mm]
23.07.2017 08:00:00 18,4 14,6 18,5 18,9 22,3 20,7 20 11 35 19 ZZW 1017,8 59 0 0,0
23.07.2017 07:00:00 18,5 14,8 17,9 18,9 22,6 20,7 18 10 29 16 ZZW 1017,3 63 0 0,1
23.07.2017 06:00:00 18,3 15,2 16,7 19,1 22,9 20,7 17 9 27 15 Z 1017,0 23 0 0,3
23.07.2017 05:00:00 18,3 15,8 17,0 19,5 23,2 20,7 21 11 31 17 ZZW 1016,5 5 0 0,1
23.07.2017 04:00:00 19,4 16,2 18,3 20,1 23,4 20,7 14 8 29 15 ZZW 1015,8 59 0 0,1
23.07.2017 03:00:00 20,9 15,9 20,1 20,3 23,7 20,7 18 10 32 18 ZZW 1015,4 48 0 0,0
23.07.2017 02:00:00 20,4 16,3 19,6 20,8 24,1 20,7 12 7 22 12 ZZW 1015,2 49 0 0,0
23.07.2017 01:00:00 20,4 16,7 18,5 21,0 24,4 20,7 6 4 12 7 Z 1014,2 10 0 0,1
23.07.2017 00:00:00 21,5 15,9 20,4 21,4 24,8 20,7 10 5 16 9 Z 1014,1 52 0 0,0
22.07.2017 23:00:00 20,8 16,5 19,7 21,9 25,2 20,7 10 5 16 8 WZW 1014,0 43 0 0,0
22.07.2017 22:00:00 22,7 15,2 21,3 22,6 25,6 20,7 12 6 16 9 Z 1013,2 41 0 0,0
22.07.2017 21:00:00 21,5 18,3 20,4 23,9 26,0 20,7 6 3 10 6 ZZW 1012,9 33 0 0,0
22.07.2017 20:00:00 23,1 16,4 22,3 24,8 26,3 20,7 8 4 12 6 ZZO 1013,0 51 0 0,0
22.07.2017 19:00:00 23,3 17,8 22,4 26,1 26,5 20,7 5 3 40 21 ZZW 1012,9 42 0 0,2
22.07.2017 18:00:00 26,9 12,5 26,7 30,4 26,3 20,7 18 10 27 14 ZW 1012,7 62 36 0,0
22.07.2017 17:00:00 28,2 15,4 31,7 32,1 25,9 20,6 14 7 26 14 ZZW 1012,2 38 49 0,0
22.07.2017 16:00:00 26,9 15,0 28,3 31,8 25,5 20,6 14 8 32 18 WZW 1013,0 52 40 0,0
22.07.2017 15:00:00 27,2 15,2 31,0 31,4 25,1 20,6 13 7 30 16 W 1013,0 49 56 0,0
22.07.2017 14:00:00 27,7 15,5 32,4 30,4 24,6 20,6 20 11 31 17 WZW 1013,2 36 58 0,0
22.07.2017 13:00:00 26,6 15,2 30,8 30,0 24,0 20,6 14 8 25 13 W 1013,3 50 60 0,0
22.07.2017 12:00:00 24,9 14,6 28,5 28,6 23,5 20,6 15 8 23 12 WZW 1013,7 41 60 0,0
22.07.2017 11:00:00 24,1 15,7 27,9 27,8 23,0 20,6 11 6 21 11 WZW 1013,7 37 60 0,0
22.07.2017 10:00:00 22,9 17,0 27,3 26,2 22,6 20,6 3 2 10 6 N 1013,9 50 60 0,0
22.07.2017 09:00:00 20,5 16,6 25,4 23,1 22,4 20,6 4 2 6 4 NW 1014,0 46 60 0,0
22.07.2017 08:00:00 18,4 16,3 20,2 20,2 22,6 20,6 4 2 6 3 NNW 1013,8 38 60 0,0
22.07.2017 07:00:00 15,6 14,7 15,8 18,3 22,9 20,6 0 0 5 3 N 1013,9 17 13 0,0
22.07.2017 06:00:00 15,7 15,0 14,3 18,7 23,3 20,6 2 1 6 4 NNO 1013,5 22 0 0,0
22.07.2017 05:00:00 16,6 16,1 16,0 19,3 23,6 20,6 0 0 6 3 N 1013,3 20 0 0,0
22.07.2017 04:00:00 16,7 16,3 15,9 19,6 24,0 20,6 4 2 7 4 NNW 1012,6 10 0 0,0
22.07.2017 03:00:00 17,0 16,3 17,0 20,3 24,3 20,6 4 2 6 4 NNW 1013,0 19 0 0,1
22.07.2017 02:00:00 17,5 16,7 17,4 20,6 24,7 20,6 3 2 7 4 NO 1013,0 16 0 0,1
22.07.2017 01:00:00 17,8 16,6 17,4 20,9 25,2 20,6 4 2 8 5 N 1012,8 36 0 0,1
22.07.2017 00:00:00 18,0 16,1 17,4 20,9 25,8 20,6 6 3 25 14 ZZW 1013,0 52 0 0,0
21.07.2017 23:00:00 18,8 16,5 18,3 21,5 26,4 20,6 15 8 22 12 Z 1012,7 50 0 0,0
21.07.2017 22:00:00 17,8 16,8 16,9 22,3 27,1 20,6 4 2 12 6 N 1012,0 24 0 0,0
21.07.2017 21:00:00 18,6 16,5 17,9 23,1 27,8 20,6 10 5 46 25 Z 1012,3 52 0 4,7
21.07.2017 20:00:00 18,8 15,6 17,3 27,4 28,3 20,6 38 21 61 33 ZW 1012,1 2,4 0 1,2
21.07.2017 19:00:00 25,9 17,1 25,9 30,2 28,4 20,6 5 3 14 8 NNW 1008,9 48 0 0,0
21.07.2017 18:00:00 27,1 16,7 28,5 33,1 28,2 20,5 10 5 22 12 NW 1008,7 57 6 0,0
21.07.2017 17:00:00 28,7 16,7 35,7 36,3 27,6 20,5 16 9 27 15 NNW 1008,9 38 59 0,0
21.07.2017 16:00:00 28,4 16,7 37,3 36,7 26,9 20,5 12 6 26 14 NW 1009,5 50 59 0,0
21.07.2017 15:00:00 28,0 16,7 35,7 36,9 25,9 20,5 14 7 28 15 NW 1010,4 35 60 0,0
21.07.2017 14:00:00 26,1 15,6 34,8 35,7 25,0 20,5 10 5 24 13 NNW 1011,3 46 60 0,0
21.07.2017 13:00:00 25,5 15,9 34,3 33,9 24,1 20,5 10 6 21 12 N 1012,0 34 60 0,0
21.07.2017 12:00:00 24,4 15,1 33,0 30,9 23,5 20,5 13 7 24 13 NNW 1012,5 41 60 0,0
21.07.2017 11:00:00 23,4 15,5 29,5 27,8 23,0 20,5 8 4 14 7 NW 1013,1 43 60 0,0
21.07.2017 10:00:00 21,5 15,3 26,7 24,8 22,7 20,5 8 5 14 8 NNW 1013,8 53 59 0,0
21.07.2017 09:00:00 20,6 16,9 25,3 22,0 22,7 20,5 6 4 12 6 NNW 1014,1 40 20 0,0
21.07.2017 08:00:00 19,0 15,7 20,3 20,6 22,8 20,5 3 2 7 4 NNW 1014,2 42 7 0,0
21.07.2017 07:00:00 17,9 15,9 17,7 19,7 23,1 20,5 3 2 9 5 NNO 1014,4 36 0 0,0
21.07.2017 06:00:00 17,5 15,8 17,3 19,6 23,3 20,4 5 3 8 4 N 1014,4 33 0 0,0
21.07.2017 05:00:00 17,7 16,2 17,0 19,5 23,7 20,4 6 3 10 5 N 1014,4 30 0 0,0
21.07.2017 04:00:00 17,2 15,5 15,2 19,8 24,0 20,4 2 1 8 4 O 1014,6 30 0 0,0
21.07.2017 03:00:00 18,4 16,3 17,9 20,4 24,3 20,4 6 3 9 5 NO 1014,6 37 0 0,0
21.07.2017 02:00:00 17,5 16,2 17,0 20,8 24,7 20,4 5 3 8 5 N 1014,9 23 0 0,0
21.07.2017 01:00:00 17,8 16,4 17,4 21,0 25,1 20,4 4 2 7 4 Z 1014,8 37 0 0,0
21.07.2017 00:00:00 17,8 16,3 16,5 21,6 25,5 20,4 3 2 6 4 NW 1014,6 28 0 0,0
20.07.2017 23:00:00 18,8 17,5 18,7 22,2 25,9 20,4 4 2 10 5 N 1014,7 36 0 0,0
20.07.2017 22:00:00 19,3 17,2 17,7 22,9 26,4 20,4 3 2 9 5 OZO 1014,2 39 0 0,0
20.07.2017 21:00:00 20,7 17,8 20,2 24,1 26,8 20,3 7 4 11 6 NO 1013,6 54 30 0,0
20.07.2017 20:00:00 21,7 17,4 22,5 26,1 27,1 20,3 6 4 18 10 NNW 1013,0 63 56 0,0
20.07.2017 19:00:00 21,1 17,5 21,3 26,9 27,3 20,3 7 4 37 20 O 1013,4 47 8 3,4
20.07.2017 18:00:00 23,7 14,7 24,8 30,2 27,2 20,3 19 10 34 18 N 1012,5 70 0 0,0
20.07.2017 17:00:00 27,7 11,8 30,1 32,5 26,8 20,3 21 11 34 19 ZW 1011,7 70 33 0,0
20.07.2017 16:00:00 28,0 11,6 32,8 32,8 26,2 20,3 20 11 35 19 ZZW 1011,8 55 28 0,0
20.07.2017 15:00:00 27,4 13,9 32,9 33,0 25,6 20,3 16 8 24 13 ZZW 1012,2 51 35 0,0
20.07.2017 14:00:00 27,1 13,9 33,6 31,7 25,1 20,2 11 6 29 16 W 1012,6 41 35 0,0
20.07.2017 13:00:00 24,9 13,3 28,5 28,9 24,9 20,2 13 7 34 18 W 1012,9 70 35 0,0
20.07.2017 12:00:00 23,1 14,1 26,1 24,7 24,9 20,2 22 12 34 19 ZW 1013,4 68 5 0,0
20.07.2017 11:00:00 20,9 14,2 21,0 23,2 25,1 20,2 20 11 36 19 Z 1013,9 70 0 0,1
20.07.2017 10:00:00 20,7 15,3 18,5 24,1 25,2 20,2 23 13 35 19 ZZW 1014,0 29 0 0,0
20.07.2017 09:00:00 23,0 13,4 23,4 24,2 25,3 20,2 23 13 36 19 ZW 1013,4 70 1 0,0
20.07.2017 08:00:00 23,1 12,5 23,0 23,7 25,5 20,2 20 11 30 16 ZW 1012,8 70 0 0,0
20.07.2017 07:00:00 22,0 12,9 21,4 23,5 25,8 20,1 8 5 17 9 ZW 1012,5 70 0 0,0
20.07.2017 06:00:00 22,7 12,2 21,6 23,7 26,1 20,1 14 7 37 20 ZZW 1012,4 70 0 0,0
20.07.2017 05:00:00 23,0 13,2 22,3 24,1 26,4 20,1 24 13 40 21 ZZW 1012,5 70 0 0,0
20.07.2017 04:00:00 23,9 13,7 22,9 24,4 26,8 20,1 18 10 45 25 ZZW 1012,0 63 0 0,0
20.07.2017 03:00:00 25,6 11,7 24,2 24,9 27,1 20,1 24 13 44 24 ZZW 1012,2 69 0 0,1
20.07.2017 02:00:00 25,6 12,9 24,2 25,7 27,5 20,1 16 9 22 12 Z 1011,6 50 0 0,0
20.07.2017 01:00:00 25,4 12,6 24,5 26,1 27,9 20,1 13 7 25 13 Z 1011,0 68 0 0,0
20.07.2017 00:00:00 25,6 12,4 23,5 26,3 28,4 20,1 14 7 18 10 Z 1010,7 66 0 0,0
19.07.2017 23:00:00 26,6 12,1 23,3 27,6 28,8 20,1 9 5 21 11 Z 1010,8 57 0 0,0
19.07.2017 22:00:00 27,9 12,3 26,2 29,0 29,1 20,0 18 10 36 19 ZZO 1010,4 49 0 0,0
19.07.2017 21:00:00 29,8 12,0 28,6 31,0 29,3 20,0 12 6 21 12 ZZW 1010,0 51 13 0,0
19.07.2017 20:00:00 30,9 11,9 31,1 32,6 29,4 20,0 18 10 32 17 ZW 1009,4 53 53 0,0
19.07.2017 19:00:00 32,7 11,7 34,7 34,6 29,2 20,0 13 7 23 12 WZW 1009,1 30 53 0,0
19.07.2017 18:00:00 32,1 13,6 36,4 36,1 28,9 20,0 11 6 21 11 N 1009,1 54 53 0,0
19.07.2017 17:00:00 33,5 12,2 38,4 37,4 28,4 20,0 14 7 27 15 WNW 1009,5 35 60 0,0
19.07.2017 16:00:00 33,1 12,2 38,8 37,4 27,7 20,0 16 9 31 17 W 1010,1 50 60 0,0
19.07.2017 15:00:00 32,9 13,4 39,7 36,6 27,0 20,0 18 10 36 19 W 1010,4 33 60 0,0
19.07.2017 14:00:00 32,3 11,6 37,9 35,9 26,3 19,9 18 10 32 17 WZW 1010,7 32 60 0,0
19.07.2017 13:00:00 31,4 12,2 37,7 33,6 25,6 19,9 12 7 29 15 WZW 1011,0 35 47 0,0
19.07.2017 12:00:00 30,5 10,8 35,0 32,6 25,0 19,9 15 8 29 16 ZW 1011,6 47 60 0,0
19.07.2017 11:00:00 29,2 10,8 34,2 29,7 24,6 19,9 19 11 38 21 ZZW 1012,6 31 60 0,0
19.07.2017 10:00:00 28,2 12,5 31,4 27,4 24,4 19,9 22 12 34 18 ZW 1013,2 34 60 0,0
19.07.2017 09:00:00 26,2 15,1 29,3 25,0 24,3 19,9 3 2 12 7 ZO 1013,7 43 60 0,0
19.07.2017 08:00:00 22,3 16,1 25,3 22,7 24,5 19,9 2 1 7 4 NW 1013,6 31 58 0,0
19.07.2017 07:00:00 17,6 15,2 17,2 21,3 24,9 19,9 4 2 7 4 NW 1014,0 34 10 0,0
19.07.2017 06:00:00 17,5 15,5 14,9 21,5 25,3 19,8 5 3 7 4 WZW 1013,7 37 0 0,0
19.07.2017 05:00:00 17,3 15,0 14,9 22,3 25,7 19,8 2 1 6 3 N 1013,2 36 0 0,0
19.07.2017 04:00:00 19,6 15,0 17,0 23,0 26,1 19,8 3 1 13 7 NNW 1012,9 51 0 0,0
19.07.2017 03:00:00 20,7 15,3 16,7 23,7 26,6 19,8 5 3 8 4 ZO 1013,1 51 0 0,0
19.07.2017 02:00:00 21,6 15,0 18,8 24,6 27,0 19,8 4 2 13 7 W 1013,0 53 0 0,0
19.07.2017 01:00:00 22,3 15,5 19,3 25,3 27,4 19,8 6 3 10 6 ZW 1012,6 51 0 0,0
19.07.2017 00:00:00 24,5 15,0 21,7 26,4 27,8 19,8 7 4 22 12 NNW 1012,8 60 0 0,0
18.07.2017 23:00:00 26,1 14,8 25,3 27,3 28,2 19,8 9 5 28 15 ZO 1012,8 70 0 0,0
18.07.2017 22:00:00 27,0 14,1 25,9 28,6 28,6 19,8 16 8 30 16 ZO 1012,5 70 0 0,0
18.07.2017 21:00:00 28,8 15,3 27,7 30,7 28,8 19,8 7 4 12 6 ZZO 1012,1 62 29 0,0
18.07.2017 20:00:00 30,7 14,9 33,0 32,7 28,8 19,8 9 5 18 10 NNW 1011,5 56 60 0,0
18.07.2017 19:00:00 31,7 13,7 36,7 34,4 28,6 19,8 10 5 20 11 NNW 1011,7 50 60 0,0
18.07.2017 18:00:00 31,6 14,9 38,3 35,8 28,3 19,7 14 8 21 12 NNW 1012,0 50 55 0,0
18.07.2017 17:00:00 32,0 13,9 39,3 37,1 27,7 19,7 8 4 19 10 NW 1012,6 52 60 0,0
18.07.2017 16:00:00 31,3 13,8 39,0 37,4 27,0 19,7 7 4 18 10 ONO 1013,3 45 60 0,0
18.07.2017 15:00:00 30,6 13,7 41,0 36,9 26,2 19,7 8 5 23 12 NNW 1014,1 32 60 0,0
18.07.2017 14:00:00 29,1 14,1 38,1 35,8 25,4 19,7 8 4 20 11 NW 1015,0 46 60 0,0
18.07.2017 13:00:00 28,3 15,9 37,8 34,3 24,5 19,7 8 5 17 9 NNW 1015,7 39 60 0,0
18.07.2017 12:00:00 27,2 15,7 35,8 32,2 23,8 19,7 6 3 14 7 W 1016,4 40 60 0,0
18.07.2017 11:00:00 25,0 15,3 30,3 29,7 23,3 19,7 6 3 16 9 ZZW 1017,0 45 60 0,0
18.07.2017 10:00:00 23,5 15,2 31,0 26,7 22,9 19,7 6 3 12 6 NW 1017,4 36 60 0,0
18.07.2017 09:00:00 22,0 15,0 26,3 23,7 22,9 19,7 4 2 8 4 NW 1017,7 36 60 0,0
18.07.2017 08:00:00 19,5 15,4 23,4 21,2 23,1 19,7 6 3 8 4 NNW 1018,0 25 60 0,0
18.07.2017 07:00:00 16,5 14,4 16,9 19,5 23,4 19,7 3 1 5 3 NNW 1018,5 20 17 0,0
18.07.2017 06:00:00 15,1 14,1 12,5 19,6 23,8 19,7 4 2 6 3 NO 1018,6 20 0 0,0
18.07.2017 05:00:00 16,5 14,8 13,2 20,2 24,3 19,7 3 1 5 3 WZW 1018,3 29 0 0,0
18.07.2017 04:00:00 16,1 14,6 12,8 20,9 24,7 19,7 3 1 6 3 WZW 1018,3 26 0 0,0
18.07.2017 03:00:00 17,3 14,9 14,0 21,7 25,1 19,6 0 0 8 5 N 1018,3 38 0 0,0
18.07.2017 02:00:00 18,9 15,1 15,8 22,6 25,6 19,6 4 2 10 5 NNW 1018,1 46 0 0,0
18.07.2017 01:00:00 19,7 15,4 17,1 23,6 26,0 19,6 3 2 8 4 ZW 1018,2 59 0 0,0
18.07.2017 00:00:00 21,1 16,0 17,9 24,6 26,4 19,6 5 3 8 4 NNW 1018,1 62 0 0,0
17.07.2017 23:00:00 21,4 14,9 19,5 25,5 26,8 19,6 4 2 9 5 NNW 1018,2 70 0 0,0
17.07.2017 22:00:00 24,4 14,1 21,1 26,9 27,2 19,6 6 3 12 7 N 1017,6 65 0 0,0
17.07.2017 21:00:00 26,4 13,1 25,3 29,0 27,4 19,6 8 5 16 9 N 1017,2 70 34 0,0
17.07.2017 20:00:00 28,3 13,5 31,3 31,0 27,4 19,6 10 5 19 10 NNW 1017,1 70 60 0,0
17.07.2017 19:00:00 28,9 12,8 33,6 32,7 27,2 19,6 10 5 20 11 NNW 1017,1 70 60 0,0
17.07.2017 18:00:00 29,3 12,6 36,1 34,3 26,9 19,6 9 5 20 11 N 1017,5 65 60 0,0
17.07.2017 17:00:00 29,2 11,8 36,5 35,2 26,3 19,6 13 7 24 13 NW 1018,1 49 60 0,0
17.07.2017 16:00:00 29,0 12,4 37,7 35,6 25,6 19,6 15 8 31 17 NNW 1018,5 55 60 0,0
17.07.2017 15:00:00 28,5 14,2 37,7 35,5 24,8 19,6 11 6 22 12 NW 1018,9 49 60 0,0
17.07.2017 14:00:00 27,5 14,5 35,2 34,8 23,9 19,6 8 5 23 12 NW 1019,5 70 60 0,0
17.07.2017 13:00:00 26,7 14,0 36,1 33,2 23,1 19,6 9 5 18 10 WNW 1020,0 54 60 0,0
17.07.2017 12:00:00 24,9 12,9 33,9 31,0 22,3 19,6 5 3 15 8 NNW 1020,7 63 60 0,0
17.07.2017 11:00:00 23,8 13,4 30,5 28,3 21,7 19,6 5 3 15 8 WNW 1021,1 52 60 0,0
17.07.2017 10:00:00 22,9 13,6 28,4 25,3 21,4 19,6 4 2 10 5 O 1021,4 68 59 0,0
17.07.2017 09:00:00 21,0 12,2 25,4 22,1 21,2 19,6 0 0 8 4 N 1021,6 65 60 0,0
17.07.2017 08:00:00 17,9 12,6 22,6 19,3 21,4 19,6 5 3 8 4 N 1021,9 58 60 0,0

tt = temperatuur
td = dauwpunt
tt 5cm = temperatuur 5cm
tt -5cm = temperatuur -5cm
tt -20cm = temperatuur -20cm
tt -100cm = temperatuur -100cm
ff = windsnelheid
fx = windstoten
dd = windrichting
ppp = luchtdruk
vv = zicht
sd = Zonneschijnduur
rr = neerslag

Weerstations in de omgeving